Weather in Studencheskiy

Russia / Sverdlovsk Oblast     56°41′45″N   61°15′52″E
temp.,
°C
wind,
m/s
gust,
m/s
humid.,
%
clouds,
%
prec.,
mm/h
press.,
hPa
HPBL,
m
6 may, thu
thu623:00+9w6137641 1.6 10011360
02:00+7w612756 0.0 10021031
05:00+5w612779 0.0 1004951
08:00+7w61269100 0.0 10061315
11:00+9w71251100 0.1 10082079
14:00+11wnw81238100 0.1 10102126
17:00+11wnw7113988 0.1 10122085
20:00+9wnw49465 0.0 1014725
7 may, fri
fri723:00+6w39600 0.0 1016235
02:00+4wsw39730 0.0 1018219
05:00+3wsw38804 0.0 1020150
08:00+9w4860100 0.0 1021396
11:00+15w4544100 0.0 10201211
14:00+18wsw343924 0.0 10191728
17:00+20wsw35335 0.0 10192261
20:00+16sw225077 0.0 101927
8 may, sat
sat823:00+14wnw115921 0.0 102010
02:00+10sw1171100 0.0 102010
05:00+10ese0071100 0.0 102010
08:00+13ese1259100 0.0 1020122
11:00+19ese1238100 0.0 10191220
14:00+20ese2129100 0.0 10182574
17:00+20ne2231100 0.0 10172449
20:00+15nne2551100 0.0 1018110
9 may, sun
sun923:00+13nne3860100 0.0 1018185
02:00+12ne2869100 0.2 1018157
05:00+11nne2474100 0.4 101884
08:00+13nne3464100 0.3 1018172
11:00+18ne4645100 0.3 10181074
14:00+20ne453383 0.0 10172795
17:00+19ene564378 0.0 10181603
20:00+16ene245614 0.0 1019144
10 may, mon
mon1023:00+12n227254 0.0 102032
02:00+11n227519 0.0 102025
05:00+10nne11805 0.0 102110
08:00+15ne12595 0.0 1022300
11:00+20e23435 0.0 10221414
14:00+22se223484 0.0 10222195
17:00+22ssw1233100 0.0 10222281
20:00+18s4851100 0.0 1022340